{"data":{"norad_id":60404,"intl_designator":"2024-141G","name":"STARLINK-11199 [DTC]","alt_names":[],"object_type":"PAYLOAD","status":"ACTIVE","operator":null,"country":"US","launch_date":"2024-08-10","launch_site_code":"AFETR","launch_vehicle":null,"mission":null,"orbit_class":"UNKNOWN","rcs_meters":null,"size_class":null,"mass_kg":null,"dimensions":null,"purposes":["comms"],"wikipedia_slug":null,"has_3d_model":false,"image_url":null,"decayed_at":null,"tle_current":{"epoch":"2026-05-25T04:29:29.703840Z","epoch_age_seconds":52094,"freshness":"FRESH","line1":"1 60404U 24141G   26145.18714935  .00001120  00000+0  14096-4 0  9999","line2":"2 60404  53.1591  69.4517 0001001  88.4814 271.6318 15.69711389103751","mean_motion":15.69711389,"eccentricity":0.0001001,"inclination_deg":53.1591,"raan_deg":69.4517,"arg_perigee_deg":88.4814,"mean_anomaly_deg":271.6318,"bstar":1.4096e-5,"rev_number":10375,"period_min":91.736609041065,"perigee_km":359.04831587285,"apogee_km":360.39723539993,"semimajor_km":6737.8597756364,"source":"CELESTRAK","updated_at":"2026-05-25T13:38:19.267780Z"}}}